Location: Unspecified
(51.5147°N, 7.4673°E)
Time: 09:05:53
(UTC+01:00)

Vanguard 1 Rocket - Pass Details

Date: 20 February 2026
Orbit: 653 x 4214 km, 34.3° (Epoch: 7 March)

Event Time Altitude Azimuth Distance (km) Brightness Sun altitude
Rises 15:18:12 0° 245° (WSW) 4,659 12.2 19.4°
Reaches altitude 10° 15:20:59 10° 237° (WSW) 4,035 12.5 19.1°
Maximum altitude 15:31:21 39° 174° (S) 3,456 11.1 18.0°
Drops below altitude 10° 15:49:17 10° 115° (ESE) 6,853 11.7 16.0°
Sets 15:55:56 0° 110° (ESE) 8,218 12.0 15.2°
